"Pseudo-MPEC" for P22lnpu

Created 2026 Feb 10 12:35:16 UT using Find_Orb

Click here for an explanation of pseudo-MPECs

 
 Astrometry: 
     P22lnpu*0C2026 02 05.38660008 40 00.586+46 14 34.70   ~29Bo 21.54iXNEOCPF52
     P22lnpu 0C2026 02 05.39587208 39 59.216+46 14 55.98   ~29Bo 21.60iXNEOCPF52
     P22lnpu 0C2026 02 05.40516908 39 57.745+46 15 16.60   ~29Bo 21.54iXNEOCPF52

Station data:
(F52) Pan-STARRS 2, Haleakala  (N20.707382 W156.255910)  US/Hawaii.
   Observers J. Herman, T. Lowe, P. Minguez, A. Schultz, I. Smith. Measurers
   K. Chambers, T. de Boer, J. Fairlamb, H. Gao, M. Huber, C.-C. Lin, E.
   Magnier, Y. Ramanjooloo, R. Wainscoat, R. Weryk. 1.8-m Ritchey-Chrétien +
   CCD.

Orbital elements:  P22lnpu
   Perihelion 2026 Jun 22.180706 +/- 119 TT =  4:20:13.0 (JD 2461213.680706)
Epoch 2026 Feb  5.0 TT = JDT 2461076.5   Earth MOID: 0.0466   Ma: 0.0858
M 287.145108838 +/- 60              (J2000 ecliptic)             AutoNEOCP
n   0.531087010 +/- 0.34            Peri.  136.829353 +/- 90
a   1.510169157 +/- 0.645           Node   107.788820 +/- 39
e   0.34177714 +/- 0.277            Incl.   24.958518 +/- 24
P   1.856/677.842d         H 21.09  G  0.15   U 12.0  SR
q 0.994027860 +/- 0.496    Q 2.026310453 +/- 28.3
From 3 observations 2026 Feb. 5 (26.7 min); mean residual 0".20
Residuals in arcseconds: 
260205 F52  .17-  .11-    260205 F52  .33+  .23+    260205 F52  .17-  .11-    

Ephemerides (geocentric):
Date (UTC) HH   RA             Dec           delta  r     elong  mag " sig PA
---- --------  ------------   ------------  ------ ------ -----  --- --------
2026 02 10 13  08 27 05.910   +49 16 48.36  .59816 1.5056 142.4 22.0 777'  57
2026 02 10 14  08 26 59.475   +49 18 11.05  .59818 1.5054 142.3 22.0 790'  56
2026 02 10 15  08 26 53.038   +49 19 33.64  .59820 1.5052 142.3 22.0 801'  56
2026 02 10 16  08 26 46.599   +49 20 56.13  .59822 1.5050 142.2 22.0 812'  55
2026 02 10 17  08 26 40.158   +49 22 18.53  .59824 1.5048 142.2 22.0 821'  55
2026 02 10 18  08 26 33.716   +49 23 40.82  .59826 1.5046 142.1 22.0 829'  54
2026 02 10 19  08 26 27.272   +49 25 03.02  .59828 1.5044 142.1 22.0 837'  54
2026 02 10 20  08 26 20.826   +49 26 25.12  .59830 1.5042 142.0 22.0 844'  53
2026 02 10 21  08 26 14.378   +49 27 47.12  .59832 1.5040 142.0 22.0 851'  53
2026 02 10 22  08 26 07.929   +49 29 09.02  .59834 1.5038 141.9 22.0 857'  53
2026 02 10 23  08 26 01.478   +49 30 30.82  .59837 1.5036 141.9 22.0 864'  52
2026 02 11 00  08 25 55.025   +49 31 52.52  .59839 1.5034 141.8 22.0 870'  52
2026 02 11 01  08 25 48.571   +49 33 14.12  .59841 1.5032 141.7 22.0 878'  52
2026 02 11 02  08 25 42.115   +49 34 35.62  .59844 1.5030 141.7 22.0 885'  52
2026 02 11 03  08 25 35.658   +49 35 57.03  .59846 1.5028 141.6 22.0 894'  51
2026 02 11 04  08 25 29.199   +49 37 18.33  .59848 1.5026 141.6 22.0 905'  51
2026 02 11 05  08 25 22.738   +49 38 39.53  .59851 1.5024 141.5 22.0 918'  51
2026 02 11 06  08 25 16.277   +49 40 00.64  .59853 1.5022 141.5 22.0 936'  51
2026 02 11 07  08 25 09.813   +49 41 21.64  .59856 1.5020 141.4 22.0 961'  52
2026 02 11 08  08 25 03.349   +49 42 42.54  .59858 1.5018 141.4 22.0  17d  53
2026 02 11 09  08 24 56.883   +49 44 03.34  .59861 1.5016 141.3 22.0  18d  56
2026 02 11 10  08 24 50.415   +49 45 24.04  .59864 1.5014 141.3 22.0  19d  59
2026 02 11 11  08 24 43.946   +49 46 44.64  .59866 1.5012 141.2 22.0  19d  61
2026 02 11 12  08 24 37.476   +49 48 05.14  .59869 1.5010 141.1 22.0  19d  63
2026 02 11 13  08 24 31.005   +49 49 25.54  .59872 1.5008 141.1 22.0  19d  64
2026 02 11 14  08 24 24.532   +49 50 45.84  .59875 1.5006 141.0 22.0  18d 107
2026 02 11 15  08 24 18.058   +49 52 06.04  .59877 1.5004 141.0 22.0  19d 108
2026 02 11 16  08 24 11.583   +49 53 26.13  .59880 1.5002 140.9 22.0  19d 110
2026 02 11 17  08 24 05.106   +49 54 46.13  .59883 1.5000 140.9 22.0  19d 111
2026 02 11 18  08 23 58.629   +49 56 06.02  .59886 1.4998 140.8 22.0  20d 112
2026 02 11 19  08 23 52.150   +49 57 25.81  .59889 1.4996 140.8 22.0  20d 114
2026 02 11 20  08 23 45.670   +49 58 45.50  .59892 1.4994 140.7 22.0  20d 115
2026 02 11 21  08 23 39.190   +50 00 05.09  .59895 1.4992 140.7 22.0  21d 116
2026 02 11 22  08 23 32.708   +50 01 24.57  .59898 1.4990 140.6 22.0  21d 117
2026 02 11 23  08 23 26.225   +50 02 43.96  .59901 1.4988 140.6 22.0  21d 118
2026 02 12 00  08 23 19.741   +50 04 03.24  .59904 1.4986 140.5 22.0  21d 119
2026 02 12 01  08 23 13.256   +50 05 22.42  .59907 1.4984 140.4 22.0  21d 120
2026 02 12 02  08 23 06.770   +50 06 41.50  .59911 1.4982 140.4 22.0  22d 121
2026 02 12 03  08 23 00.283   +50 08 00.47  .59914 1.4980 140.3 22.0  22d 121
2026 02 12 04  08 22 53.795   +50 09 19.35  .59917 1.4978 140.3 22.0  22d 122
2026 02 12 05  08 22 47.306   +50 10 38.12  .59920 1.4976 140.2 22.0  22d 123
2026 02 12 06  08 22 40.817   +50 11 56.79  .59924 1.4974 140.2 22.0  22d 123
2026 02 12 07  08 22 34.327   +50 13 15.35  .59927 1.4972 140.1 22.0  22d 123
2026 02 12 08  08 22 27.835   +50 14 33.82  .59931 1.4970 140.1 22.0  23d 124
2026 02 12 09  08 22 21.344   +50 15 52.18  .59934 1.4968 140.0 22.0  23d 124
2026 02 12 10  08 22 14.851   +50 17 10.43  .59937 1.4966 140.0 22.0  23d 125
2026 02 12 11  08 22 08.357   +50 18 28.59  .59941 1.4964 139.9 22.0  23d 125
2026 02 12 12  08 22 01.863   +50 19 46.64  .59944 1.4962 139.9 22.0  23d 125